Versailles, OH

1:36 AM EST on December 11, 2016 (GMT -0500)
Darke County

Weather History for KVES - January, 2014

Change the Weather History Date:

Thursday, January 2, 2014

  Actual Average (KDAY) Record (KDAY)
Temperature  
Mean Temperature 16 °F -  
Max Temperature 26 °F 35 °F 61 °F (1916)
Min Temperature 6 °F 21 °F -5 °F (1898)
Degree Days  
Heating Degree Days 49    
Moisture  
Dew Point 14 °F    
Average Humidity 90    
Maximum Humidity 100    
Minimum Humidity 72    
Precipitation  
Precipitation 0.01 in - - ()
Sea Level Pressure  
Sea Level Pressure 30.00 in    
Wind  
Wind Speed 13 mph (NNE)    
Max Wind Speed 25 mph    
Max Gust Speed 33 mph    
Visibility 4 miles    
Events Snow    
Averages and records for this station are not official NWS values.
T = Trace of Precipitation, MM = Missing Value Source: NWS Daily Summary

Daily Weather History Graph

Daily Weather History Graph

Search for Another Location

Airport or City:

Trip Planner

Search our weather history database for the weather conditions in past years. The results will help you decide how hot, cold, wet, or windy it might be!

Date:

Astronomy

Jan. 02, 2014 Rise Set
Actual Time 8:00 AM EST 5:23 PM EST
Civil Twilight 7:30 AM EST 5:54 PM EST
Nautical Twilight 6:56 AM EST 6:28 PM EST
Astronomical Twilight 6:23 AM EST 7:01 PM EST
Moon 8:41 AM EST (1/2) 7:20 PM EST (1/2)
Length of Visible Light 10h 24m
Length of Day
9h 23m
New Moon, 2% of the Moon is Illuminated
Jan 2
New Moon
Jan 7
First Quarter
Jan 15
Full
Jan 24
Last Quarter
Jan 30
New

Hourly Weather History & Observations

Time (EST) Temp. Windchill Dew Point Humidity Pressure Visibility Wind Dir Wind Speed Gust Speed Precip Events Conditions
12:15 AM 26.6 °F 17.5 °F 23.0 °F 86% 30.02 in 10.0 mi NNE 9.2 mph - N/A   Scattered Clouds
12:35 AM 26.6 °F 18.2 °F 23.0 °F 86% 30.02 in 10.0 mi NE 8.1 mph - N/A   Scattered Clouds
12:55 AM 26.6 °F 18.2 °F 23.0 °F 86% 30.02 in 5.0 mi NNE 8.1 mph - N/A Snow Light Snow
1:15 AM 26.6 °F 19.1 °F 23.0 °F 86% 30.01 in 3.0 mi NE 6.9 mph - N/A Snow Light Snow
1:35 AM 24.8 °F 14.6 °F 23.0 °F 93% 30.00 in 3.0 mi NE 10.4 mph - N/A Snow Light Snow
1:55 AM 24.8 °F 16.1 °F 23.0 °F 93% 30.00 in 4.0 mi NE 8.1 mph - N/A Snow Light Snow
2:15 AM 24.8 °F 15.3 °F 23.0 °F 93% 29.99 in 5.0 mi NE 9.2 mph - N/A   Overcast
2:35 AM 24.8 °F 17.9 °F 23.0 °F 93% 30.00 in 5.0 mi NE 5.8 mph - N/A   Overcast
2:55 AM 24.8 °F 15.3 °F 23.0 °F 93% 29.99 in 5.0 mi NE 9.2 mph - N/A   Overcast
3:15 AM 24.8 °F 15.3 °F 23.0 °F 93% 29.98 in 7.0 mi NE 9.2 mph - N/A   Overcast
3:35 AM 24.8 °F 19.1 °F 23.0 °F 93% 29.98 in 7.0 mi ENE 4.6 mph - N/A Snow Light Snow
3:55 AM 24.8 °F 17.9 °F 23.0 °F 93% 29.97 in 4.0 mi ENE 5.8 mph - N/A Snow Light Snow
4:15 AM 24.8 °F 17.9 °F 23.0 °F 93% 29.95 in 3.0 mi NE 5.8 mph - N/A Snow Light Snow
4:35 AM 23.0 °F 13.1 °F 23.0 °F 100% 29.93 in 4.0 mi NE 9.2 mph - N/A Snow Light Snow
4:55 AM 23.0 °F 13.9 °F 23.0 °F 100% 29.92 in 3.0 mi ENE 8.1 mph - N/A Snow Light Snow
5:15 AM 23.0 °F 14.7 °F 23.0 °F 100% 29.91 in 2.5 mi ENE 6.9 mph - N/A Snow Light Snow
5:35 AM 23.0 °F 13.9 °F 23.0 °F 100% 29.90 in 1.5 mi NE 8.1 mph - 0.01 in Snow Light Snow
5:55 AM 23.0 °F 12.4 °F 23.0 °F 100% 29.89 in 2.5 mi NE 10.4 mph - 0.01 in Snow Light Snow
6:15 AM 23.0 °F 11.7 °F 23.0 °F 100% 29.89 in 2.0 mi NE 11.5 mph - N/A Snow Light Snow
6:35 AM 23.0 °F 13.1 °F 23.0 °F 100% 29.89 in 2.5 mi NE 9.2 mph - N/A Snow Light Snow
6:55 AM 23.0 °F 12.4 °F 21.2 °F 93% 29.89 in 1.2 mi NE 10.4 mph - N/A Snow Light Snow
7:15 AM 23.0 °F 11.7 °F 23.0 °F 100% 29.89 in 2.0 mi NE 11.5 mph - N/A Snow Light Snow
7:35 AM 23.0 °F 12.4 °F 23.0 °F 100% 29.87 in 2.0 mi NNE 10.4 mph - N/A Snow Light Snow
7:55 AM 21.2 °F 10.9 °F 21.2 °F 100% 29.87 in 1.2 mi NNE 9.2 mph - N/A Snow Light Snow
8:15 AM 19.4 °F 6.0 °F 19.4 °F 100% 29.87 in 0.8 mi NNE 13.8 mph - N/A Snow Snow
8:35 AM 19.4 °F 6.6 °F 17.6 °F 93% 29.88 in 0.8 mi North 12.7 mph 18.4 mph N/A Snow Light Snow
8:55 AM 17.6 °F 4.3 °F 17.6 °F 100% 29.88 in 0.8 mi North 12.7 mph 20.7 mph N/A Snow Light Snow
9:15 AM 17.6 °F 4.3 °F 15.8 °F 93% 29.89 in 1.0 mi NNE 12.7 mph 18.4 mph N/A Snow Light Snow
9:35 AM 17.6 °F 2.7 °F 14.0 °F 86% 29.89 in 0.5 mi NNE 16.1 mph 21.9 mph N/A Snow Light Snow
9:55 AM 15.8 °F -0.6 °F 14.0 °F 93% 29.89 in 1.2 mi NNE 18.4 mph 24.2 mph N/A Snow Light Snow
10:15 AM 15.8 °F -1.1 °F 14.0 °F 93% 29.91 in 0.8 mi NNE 19.6 mph 23.0 mph N/A Snow Light Snow
10:35 AM 15.8 °F 1.4 °F 12.2 °F 86% 29.91 in 1.8 mi NNE 13.8 mph 20.7 mph N/A Snow Light Snow
10:55 AM 14.0 °F -3.0 °F 12.2 °F 93% 29.91 in 1.0 mi NNE 18.4 mph 29.9 mph N/A Snow Light Snow
11:15 AM 14.0 °F -3.0 °F 12.2 °F 93% 29.91 in 0.8 mi NNE 18.4 mph 24.2 mph N/A Snow Light Snow
11:35 AM 14.0 °F -2.5 °F 12.2 °F 93% 29.90 in 1.2 mi NNE 17.3 mph 25.3 mph N/A Snow Light Snow
11:55 AM 15.8 °F 0.3 °F 12.2 °F 86% 29.90 in 2.0 mi NNE 16.1 mph 25.3 mph N/A Snow Light Snow
12:15 PM 15.8 °F -1.5 °F 12.2 °F 86% 29.89 in 2.5 mi North 20.7 mph 29.9 mph N/A Snow Light Snow
12:35 PM 15.8 °F -2.3 °F 12.2 °F 86% 29.90 in 2.0 mi NNE 23.0 mph - N/A Snow Light Snow
12:55 PM 15.8 °F -0.6 °F 12.2 °F 86% 29.90 in 2.0 mi NNE 18.4 mph 26.5 mph N/A Snow Light Snow
1:15 PM 15.8 °F -1.9 °F 12.2 °F 86% 29.90 in 1.8 mi North 21.9 mph 31.1 mph N/A Snow Light Snow
1:35 PM 15.8 °F -2.3 °F 12.2 °F 86% 29.90 in 1.5 mi North 23.0 mph 28.8 mph N/A Snow Light Snow
1:55 PM 15.8 °F -2.7 °F 12.2 °F 86% 29.89 in 1.5 mi North 24.2 mph 33.4 mph N/A Snow Light Snow
2:15 PM 15.8 °F -3.1 °F 12.2 °F 86% 29.90 in 2.0 mi North 25.3 mph 31.1 mph N/A Snow Light Snow
2:35 PM 14.0 °F -5.1 °F 12.2 °F 93% 29.92 in 1.8 mi North 24.2 mph 31.1 mph N/A Snow Light Snow
2:55 PM 14.0 °F -3.4 °F 12.2 °F 93% 29.93 in 1.5 mi North 19.6 mph 27.6 mph N/A Snow Light Snow
3:15 PM 14.0 °F -5.1 °F 12.2 °F 93% 29.94 in 2.5 mi North 24.2 mph 31.1 mph N/A Snow Light Snow
3:35 PM 14.0 °F -4.7 °F 10.4 °F 86% 29.96 in 1.5 mi North 23.0 mph 29.9 mph N/A Snow Light Snow
3:55 PM 14.0 °F -5.1 °F 10.4 °F 86% 29.97 in 1.5 mi North 24.2 mph 32.2 mph N/A Snow Light Snow
4:15 PM 14.0 °F -3.9 °F 10.4 °F 86% 29.99 in 1.5 mi North 20.7 mph 28.8 mph N/A Snow Light Snow
4:35 PM 14.0 °F -4.3 °F 10.4 °F 86% 30.00 in 1.2 mi North 21.9 mph - N/A Snow Light Snow
4:55 PM 14.0 °F -5.1 °F 10.4 °F 86% 30.02 in 1.5 mi North 24.2 mph 28.8 mph N/A Snow Light Snow
5:15 PM 14.0 °F -4.3 °F 10.4 °F 86% 30.03 in 1.2 mi North 21.9 mph 29.9 mph N/A Snow Light Snow
5:35 PM 14.0 °F -3.9 °F 10.4 °F 86% 30.05 in 1.8 mi North 20.7 mph 27.6 mph N/A Snow Light Snow
5:55 PM 14.0 °F -3.0 °F 10.4 °F 86% 30.06 in 3.0 mi North 18.4 mph - N/A Snow Light Snow
6:15 PM 14.0 °F -3.0 °F 10.4 °F 86% 30.07 in 3.0 mi North 18.4 mph 23.0 mph N/A Snow Light Snow
6:35 PM 14.0 °F -4.3 °F 10.4 °F 86% 30.09 in 3.0 mi North 21.9 mph 28.8 mph N/A Snow Light Snow
6:55 PM 14.0 °F -3.4 °F 10.4 °F 86% 30.10 in 3.0 mi North 19.6 mph 25.3 mph N/A Snow Light Snow
7:15 PM 12.2 °F -4.8 °F 10.4 °F 92% 30.12 in 2.5 mi NNW 17.3 mph - N/A Snow Light Snow
7:35 PM 12.2 °F -6.7 °F 10.4 °F 92% 30.14 in 2.5 mi North 21.9 mph 26.5 mph N/A Snow Light Snow
7:55 PM 12.2 °F -6.3 °F 8.6 °F 85% 30.15 in 4.0 mi North 20.7 mph 27.6 mph N/A   Overcast
8:15 PM 12.2 °F -4.8 °F 8.6 °F 85% 30.16 in 4.0 mi NNW 17.3 mph 24.2 mph N/A Snow Light Snow
8:35 PM 12.2 °F -5.8 °F 8.6 °F 85% 30.17 in 4.0 mi North 19.6 mph 24.2 mph N/A   Overcast
8:55 PM 10.4 °F -7.7 °F 6.8 °F 85% 30.18 in 5.0 mi North 18.4 mph - N/A   Mostly Cloudy
9:15 PM 10.4 °F -8.2 °F 6.8 °F 85% 30.19 in 5.0 mi North 19.6 mph 23.0 mph N/A   Mostly Cloudy
9:35 PM 10.4 °F -6.6 °F 5.0 °F 79% 30.19 in 7.0 mi North 16.1 mph 24.2 mph N/A   Mostly Cloudy
9:55 PM 8.6 °F -9.5 °F 5.0 °F 85% 30.19 in 7.0 mi North 17.3 mph 26.5 mph N/A   Mostly Cloudy
10:15 PM 8.6 °F -8.9 °F 5.0 °F 85% 30.21 in 10.0 mi NNW 16.1 mph 19.6 mph N/A   Scattered Clouds
10:35 PM 8.6 °F -7.7 °F 3.2 °F 79% 30.21 in 10.0 mi NNW 13.8 mph - N/A   Clear
10:55 PM 8.6 °F -7.0 °F 3.2 °F 79% 30.22 in 10.0 mi NNW 12.7 mph 19.6 mph N/A   Mostly Cloudy
11:15 PM 8.6 °F -7.7 °F 1.4 °F 73% 30.23 in 10.0 mi NNW 13.8 mph - N/A   Scattered Clouds
11:35 PM 6.8 °F -7.8 °F 1.4 °F 79% 30.23 in 10.0 mi NNW 10.4 mph - N/A   Clear
11:55 PM 6.8 °F -4.8 °F -0.4 °F 72% 30.24 in 10.0 mi NNW 6.9 mph - N/A   Clear